Time,TemperatureF,DewpointF,PressureIn,WindDirection,WindDirectionDegrees,WindSpeedMPH,WindSpeedGustMPH,Humidity,HourlyPrecipIn,Conditions,Clouds,dailyrainin,SoftwareType,DateUTC
2013-06-27 00:00:00,66.4,58.6,30.10,SW,217,0.0,1.0,76,0.00,,,0.00,VWS V14.01,2013-06-27 07:00:00,
2013-06-27 00:04:00,66.4,58.6,30.10,WSW,239,0.0,1.0,76,0.00,,,0.00,VWS V14.01,2013-06-27 07:04:00,
2013-06-27 00:09:00,66.4,58.6,30.11,West,270,0.0,1.0,76,0.00,,,0.00,VWS V14.01,2013-06-27 07:09:00,
2013-06-27 00:14:00,66.2,58.4,30.11,WSW,253,0.0,1.0,76,0.00,,,0.00,VWS V14.01,2013-06-27 07:14:00,
2013-06-27 00:19:00,66.1,58.3,30.10,NW,325,0.0,1.0,76,0.00,,,0.00,VWS V14.01,2013-06-27 07:19:00,
2013-06-27 00:23:00,66.0,58.6,30.10,NNW,333,0.0,2.0,77,0.00,,,0.00,VWS V14.01,2013-06-27 07:23:00,
2013-06-27 00:28:00,66.0,58.6,30.10,SW,228,0.0,0.0,77,0.00,,,0.00,VWS V14.01,2013-06-27 07:28:00,
2013-06-27 00:30:00,66.0,58.6,30.10,SW,228,0.0,2.0,77,0.00,,,0.00,VWS V14.01,2013-06-27 07:30:00,
2013-06-27 00:33:00,65.8,58.4,30.11,West,277,0.0,2.0,77,0.00,,,0.00,VWS V14.01,2013-06-27 07:33:00,
2013-06-27 00:38:00,65.7,58.3,30.11,WSW,245,0.0,2.0,77,0.00,,,0.00,VWS V14.01,2013-06-27 07:38:00,
2013-06-27 00:43:00,65.5,58.1,30.11,ESE,117,0.0,2.0,77,0.00,,,0.00,VWS V14.01,2013-06-27 07:43:00,
2013-06-27 00:48:00,65.2,58.2,30.11,ESE,120,0.0,2.0,78,0.00,,,0.00,VWS V14.01,2013-06-27 07:48:00,
2013-06-27 00:53:00,65.1,58.1,30.11,SW,214,0.0,2.0,78,0.00,,,0.00,VWS V14.01,2013-06-27 07:53:00,
2013-06-27 00:58:00,64.9,58.2,30.11,SSW,201,1.0,1.0,79,0.00,,,0.00,VWS V14.01,2013-06-27 07:58:00,
2013-06-27 01:00:00,64.9,58.2,30.11,SW,215,0.0,2.0,79,0.00,,,0.00,VWS V14.01,2013-06-27 08:00:00,
2013-06-27 01:03:00,64.7,58.0,30.11,SSW,201,0.0,1.0,79,0.00,,,0.00,VWS V14.01,2013-06-27 08:03:00,
2013-06-27 01:08:00,64.7,58.0,30.11,SW,226,0.0,3.0,79,0.00,,,0.00,VWS V14.01,2013-06-27 08:08:00,
2013-06-27 01:13:00,64.8,58.1,30.11,WSW,250,0.0,3.0,79,0.00,,,0.00,VWS V14.01,2013-06-27 08:13:00,
2013-06-27 01:18:00,64.8,58.1,30.11,WSW,243,1.0,3.0,79,0.00,,,0.00,VWS V14.01,2013-06-27 08:18:00,
2013-06-27 01:23:00,64.8,58.1,30.11,WSW,238,0.0,3.0,79,0.00,,,0.00,VWS V14.01,2013-06-27 08:23:00,
2013-06-27 01:28:00,64.7,58.0,30.11,WSW,253,0.0,1.0,79,0.00,,,0.00,VWS V14.01,2013-06-27 08:28:00,
2013-06-27 01:30:00,64.7,58.0,30.11,WSW,253,0.0,3.0,79,0.00,,,0.00,VWS V14.01,2013-06-27 08:30:00,
2013-06-27 01:33:00,64.6,58.0,30.11,SW,226,0.0,3.0,79,0.00,,,0.00,VWS V14.01,2013-06-27 08:33:00,
2013-06-27 01:38:00,64.5,58.2,30.11,SSW,197,0.0,3.0,80,0.00,,,0.00,VWS V14.01,2013-06-27 08:38:00,
2013-06-27 01:43:00,64.5,58.2,30.11,South,184,0.0,3.0,80,0.00,,,0.00,VWS V14.01,2013-06-27 08:43:00,
2013-06-27 01:48:00,64.5,58.2,30.11,NNW,330,0.0,3.0,80,0.00,,,0.00,VWS V14.01,2013-06-27 08:48:00,
2013-06-27 01:53:00,64.5,58.2,30.11,SW,217,0.0,3.0,80,0.00,,,0.00,VWS V14.01,2013-06-27 08:53:00,
2013-06-27 01:58:00,64.5,58.2,30.11,SW,217,0.0,0.0,80,0.00,,,0.00,VWS V14.01,2013-06-27 08:58:00,
2013-06-27 02:00:00,64.5,58.2,30.11,SW,217,0.0,3.0,80,0.00,,,0.00,VWS V14.01,2013-06-27 09:00:00,
2013-06-27 02:03:00,64.4,58.1,30.11,SW,223,0.0,1.0,80,0.00,,,0.00,VWS V14.01,2013-06-27 09:03:00,
2013-06-27 02:08:00,64.2,58.3,30.11,West,278,0.0,1.0,81,0.00,,,0.00,VWS V14.01,2013-06-27 09:08:00,
2013-06-27 02:13:00,64.1,58.2,30.11,West,277,0.0,1.0,81,0.00,,,0.00,VWS V14.01,2013-06-27 09:13:00,
2013-06-27 02:18:00,64.2,58.3,30.11,WSW,249,0.0,2.0,81,0.00,,,0.00,VWS V14.01,2013-06-27 09:18:00,
2013-06-27 02:23:00,64.1,58.2,30.11,WSW,256,0.0,2.0,81,0.00,,,0.00,VWS V14.01,2013-06-27 09:23:00,
2013-06-27 02:28:00,64.1,58.2,30.11,WSW,240,0.0,0.0,81,0.00,,,0.00,VWS V14.01,2013-06-27 09:28:00,
2013-06-27 02:30:00,64.1,58.2,30.11,WSW,239,0.0,2.0,81,0.00,,,0.00,VWS V14.01,2013-06-27 09:30:00,
2013-06-27 02:33:00,64.0,58.1,30.11,WSW,239,0.0,0.0,81,0.00,,,0.00,VWS V14.01,2013-06-27 09:33:00,
2013-06-27 02:38:00,63.7,58.1,30.11,WSW,240,0.0,0.0,82,0.00,,,0.00,VWS V14.01,2013-06-27 09:38:00,
2013-06-27 02:43:00,63.3,57.7,30.11,WSW,239,0.0,0.0,82,0.00,,,0.00,VWS V14.01,2013-06-27 09:43:00,
2013-06-27 02:48:00,62.9,57.7,30.11,WSW,240,0.0,0.0,83,0.00,,,0.00,VWS V14.01,2013-06-27 09:48:00,
2013-06-27 02:53:00,62.5,57.3,30.11,WSW,239,0.0,0.0,83,0.00,,,0.00,VWS V14.01,2013-06-27 09:53:00,
2013-06-27 02:58:00,62.2,57.3,30.11,WSW,240,0.0,0.0,84,0.00,,,0.00,VWS V14.01,2013-06-27 09:58:00,
2013-06-27 03:00:00,62.2,57.3,30.11,WSW,239,0.0,0.0,84,0.00,,,0.00,VWS V14.01,2013-06-27 10:00:00,
2013-06-27 03:03:00,61.8,57.2,30.11,WSW,238,0.0,0.0,85,0.00,,,0.00,VWS V14.01,2013-06-27 10:03:00,
2013-06-27 03:08:00,61.6,57.0,30.11,WSW,238,0.0,0.0,85,0.00,,,0.00,VWS V14.01,2013-06-27 10:08:00,
2013-06-27 03:13:00,61.3,57.1,30.11,WSW,238,0.0,0.0,86,0.00,,,0.00,VWS V14.01,2013-06-27 10:13:00,
2013-06-27 03:18:00,61.0,56.8,30.11,WSW,238,0.0,0.0,86,0.00,,,0.00,VWS V14.01,2013-06-27 10:18:00,
2013-06-27 03:23:00,60.8,56.9,30.11,WSW,238,0.0,0.0,87,0.00,,,0.00,VWS V14.01,2013-06-27 10:23:00,
2013-06-27 03:28:00,60.6,57.0,30.11,WSW,238,0.0,0.0,88,0.00,,,0.00,VWS V14.01,2013-06-27 10:28:00,
2013-06-27 03:30:00,60.6,56.7,30.11,WSW,238,0.0,0.0,87,0.00,,,0.00,VWS V14.01,2013-06-27 10:30:00,
2013-06-27 03:33:00,60.5,56.9,30.11,WSW,238,0.0,0.0,88,0.00,,,0.00,VWS V14.01,2013-06-27 10:33:00,
2013-06-27 03:38:00,60.4,56.8,30.11,WSW,237,0.0,0.0,88,0.00,,,0.00,VWS V14.01,2013-06-27 10:38:00,
2013-06-27 03:43:00,60.2,56.6,30.10,WSW,238,0.0,0.0,88,0.00,,,0.00,VWS V14.01,2013-06-27 10:43:00,
2013-06-27 03:48:00,60.0,56.4,30.10,WSW,238,0.0,0.0,88,0.00,,,0.00,VWS V14.01,2013-06-27 10:48:00,
2013-06-27 03:53:00,59.9,56.7,30.10,WSW,238,0.0,0.0,89,0.00,,,0.00,VWS V14.01,2013-06-27 10:53:00,
2013-06-27 03:58:00,59.7,56.5,30.10,WSW,238,0.0,0.0,89,0.00,,,0.00,VWS V14.01,2013-06-27 10:58:00,
2013-06-27 04:00:00,59.7,56.5,30.10,WSW,238,0.0,0.0,89,0.00,,,0.00,VWS V14.01,2013-06-27 11:00:00,
2013-06-27 04:03:00,59.5,56.3,30.10,WSW,237,0.0,0.0,89,0.00,,,0.00,VWS V14.01,2013-06-27 11:03:00,
2013-06-27 04:08:00,59.3,56.1,30.10,WSW,238,0.0,0.0,89,0.00,,,0.00,VWS V14.01,2013-06-27 11:08:00,
2013-06-27 04:13:00,59.2,56.3,30.10,WSW,238,0.0,0.0,90,0.00,,,0.00,VWS V14.01,2013-06-27 11:13:00,
2013-06-27 04:18:00,59.2,56.3,30.10,WSW,238,0.0,0.0,90,0.00,,,0.00,VWS V14.01,2013-06-27 11:18:00,
2013-06-27 04:23:00,59.1,56.2,30.10,WSW,238,0.0,0.0,90,0.00,,,0.00,VWS V14.01,2013-06-27 11:23:00,
2013-06-27 04:28:00,59.0,56.1,30.10,WSW,238,0.0,0.0,90,0.00,,,0.00,VWS V14.01,2013-06-27 11:28:00,
2013-06-27 04:30:00,58.9,56.0,30.10,WSW,238,0.0,0.0,90,0.00,,,0.00,VWS V14.01,2013-06-27 11:30:00,
2013-06-27 04:33:00,58.9,56.3,30.10,WSW,238,0.0,0.0,91,0.00,,,0.00,VWS V14.01,2013-06-27 11:33:00,
2013-06-27 04:38:00,58.8,56.2,30.10,WSW,238,0.0,0.0,91,0.00,,,0.00,VWS V14.01,2013-06-27 11:38:00,
2013-06-27 04:43:00,58.8,56.2,30.10,WSW,238,0.0,0.0,91,0.00,,,0.00,VWS V14.01,2013-06-27 11:43:00,
2013-06-27 04:48:00,58.8,56.2,30.10,WSW,238,0.0,0.0,91,0.00,,,0.00,VWS V14.01,2013-06-27 11:48:00,
2013-06-27 04:53:00,58.7,56.1,30.10,WSW,238,0.0,0.0,91,0.00,,,0.00,VWS V14.01,2013-06-27 11:53:00,
2013-06-27 04:58:00,58.7,56.1,30.10,WSW,238,0.0,0.0,91,0.00,,,0.00,VWS V14.01,2013-06-27 11:58:00,
2013-06-27 05:00:00,58.7,56.1,30.10,WSW,238,0.0,0.0,91,0.00,,,0.00,VWS V14.01,2013-06-27 12:00:00,
2013-06-27 05:03:00,58.5,55.9,30.10,WSW,238,0.0,0.0,91,0.00,,,0.00,VWS V14.01,2013-06-27 12:03:00,
2013-06-27 05:08:00,58.3,55.7,30.10,WSW,238,0.0,0.0,91,0.00,,,0.00,VWS V14.01,2013-06-27 12:08:00,
2013-06-27 05:13:00,58.2,55.6,30.10,WSW,238,0.0,0.0,91,0.00,,,0.00,VWS V14.01,2013-06-27 12:13:00,
2013-06-27 05:18:00,58.0,55.4,30.10,WSW,237,0.0,0.0,91,0.00,,,0.00,VWS V14.01,2013-06-27 12:18:00,
2013-06-27 05:23:00,57.9,55.6,30.11,WSW,238,0.0,0.0,92,0.00,,,0.00,VWS V14.01,2013-06-27 12:23:00,
2013-06-27 05:28:00,57.9,55.6,30.10,WSW,238,0.0,0.0,92,0.00,,,0.00,VWS V14.01,2013-06-27 12:28:00,
2013-06-27 05:30:00,57.9,55.6,30.11,WSW,238,0.0,0.0,92,0.00,,,0.00,VWS V14.01,2013-06-27 12:30:00,
2013-06-27 05:33:00,57.9,55.6,30.11,WSW,238,0.0,0.0,92,0.00,,,0.00,VWS V14.01,2013-06-27 12:33:00,
2013-06-27 05:38:00,57.8,55.5,30.11,WSW,238,0.0,0.0,92,0.00,,,0.00,VWS V14.01,2013-06-27 12:38:00,
2013-06-27 05:43:00,57.8,55.8,30.11,WSW,238,0.0,0.0,93,0.00,,,0.00,VWS V14.01,2013-06-27 12:43:00,
2013-06-27 05:48:00,57.9,55.9,30.10,WSW,238,0.0,0.0,93,0.00,,,0.00,VWS V14.01,2013-06-27 12:48:00,
2013-06-27 05:53:00,57.8,55.8,30.11,WSW,238,0.0,0.0,93,0.00,,,0.00,VWS V14.01,2013-06-27 12:53:00,
2013-06-27 05:58:00,57.7,55.4,30.10,WSW,238,0.0,0.0,92,0.00,,,0.00,VWS V14.01,2013-06-27 12:58:00,
2013-06-27 06:00:00,57.7,55.4,30.10,WSW,238,0.0,0.0,92,0.00,,,0.00,VWS V14.01,2013-06-27 13:00:00,
2013-06-27 06:03:00,57.7,55.7,30.11,WSW,238,0.0,0.0,93,0.00,,,0.00,VWS V14.01,2013-06-27 13:03:00,
2013-06-27 06:08:00,57.7,55.7,30.11,WSW,238,0.0,0.0,93,0.00,,,0.00,VWS V14.01,2013-06-27 13:08:00,
2013-06-27 06:13:00,57.8,55.8,30.11,WSW,238,0.0,0.0,93,0.00,,,0.00,VWS V14.01,2013-06-27 13:13:00,
2013-06-27 06:18:00,57.7,55.7,30.11,WSW,238,0.0,0.0,93,0.00,,,0.00,VWS V14.01,2013-06-27 13:18:00,
2013-06-27 06:23:00,57.8,55.8,30.11,WSW,238,0.0,0.0,93,0.00,,,0.00,VWS V14.01,2013-06-27 13:23:00,
2013-06-27 06:28:00,57.8,55.8,30.11,WSW,238,0.0,0.0,93,0.00,,,0.00,VWS V14.01,2013-06-27 13:28:00,
2013-06-27 06:30:00,57.8,55.8,30.11,WSW,238,0.0,0.0,93,0.00,,,0.00,VWS V14.01,2013-06-27 13:30:00,
2013-06-27 06:33:00,57.9,56.2,30.11,WSW,238,0.0,0.0,94,0.00,,,0.00,VWS V14.01,2013-06-27 13:33:00,
2013-06-27 06:38:00,58.0,56.3,30.11,WSW,238,0.0,0.0,94,0.00,,,0.00,VWS V14.01,2013-06-27 13:38:00,
2013-06-27 06:43:00,58.3,56.6,30.11,WSW,238,0.0,0.0,94,0.00,,,0.00,VWS V14.01,2013-06-27 13:43:00,
2013-06-27 06:48:00,58.5,56.8,30.11,WSW,238,0.0,0.0,94,0.00,,,0.00,VWS V14.01,2013-06-27 13:48:00,
2013-06-27 06:53:00,58.9,57.5,30.11,WSW,238,0.0,0.0,95,0.00,,,0.00,VWS V14.01,2013-06-27 13:53:00,
2013-06-27 06:58:00,60.1,58.7,30.12,WSW,238,0.0,0.0,95,0.00,,,0.00,VWS V14.01,2013-06-27 13:58:00,
2013-06-27 07:00:00,60.1,58.7,30.12,WSW,238,0.0,0.0,95,0.00,,,0.00,VWS V14.01,2013-06-27 14:00:00,
2013-06-27 07:03:00,61.7,60.3,30.11,WSW,238,0.0,0.0,95,0.00,,,0.00,VWS V14.01,2013-06-27 14:03:00,
2013-06-27 07:08:00,63.6,60.6,30.12,SW,236,0.0,0.0,90,0.00,,,0.00,VWS V14.01,2013-06-27 14:08:00,
2013-06-27 07:13:00,66.3,61.7,30.12,SW,236,0.0,0.0,85,0.00,,,0.00,VWS V14.01,2013-06-27 14:13:00,
2013-06-27 07:18:00,68.6,61.8,30.12,SW,236,0.0,0.0,79,0.00,,,0.00,VWS V14.01,2013-06-27 14:18:00,
2013-06-27 07:23:00,70.2,61.5,30.12,SW,236,0.0,0.0,74,0.00,,,0.00,VWS V14.01,2013-06-27 14:23:00,
2013-06-27 07:28:00,71.0,61.5,30.12,WSW,240,0.0,0.0,72,0.00,,,0.00,VWS V14.01,2013-06-27 14:28:00,
2013-06-27 07:30:00,71.0,61.5,30.12,SW,236,0.0,0.0,72,0.00,,,0.00,VWS V14.01,2013-06-27 14:30:00,
2013-06-27 07:33:00,71.0,61.5,30.12,WSW,244,0.0,1.0,72,0.00,,,0.00,VWS V14.01,2013-06-27 14:33:00,
2013-06-27 07:38:00,71.2,61.3,30.12,WSW,248,0.0,2.0,71,0.00,,,0.00,VWS V14.01,2013-06-27 14:38:00,
2013-06-27 07:43:00,72.0,61.7,30.12,WSW,245,0.0,2.0,70,0.00,,,0.00,VWS V14.01,2013-06-27 14:43:00,
2013-06-27 07:49:00,72.9,61.7,30.13,WSW,245,0.0,0.0,68,0.00,,,0.00,VWS V14.01,2013-06-27 14:49:00,
2013-06-27 07:54:00,72.9,61.7,30.12,WNW,295,1.0,1.0,68,0.00,,,0.00,VWS V14.01,2013-06-27 14:54:00,
2013-06-27 07:59:00,72.2,61.1,30.13,WSW,252,5.0,5.0,68,0.00,,,0.00,VWS V14.01,2013-06-27 14:59:00,
2013-06-27 08:00:00,72.4,61.2,30.13,SW,232,1.0,3.0,68,0.00,,,0.00,VWS V14.01,2013-06-27 15:00:00,
2013-06-27 08:04:00,71.8,61.1,30.13,WNW,295,0.0,5.0,69,0.00,,,0.00,VWS V14.01,2013-06-27 15:04:00,
2013-06-27 08:09:00,72.2,61.5,30.13,WSW,248,2.0,5.0,69,0.00,,,0.00,VWS V14.01,2013-06-27 15:09:00,
2013-06-27 08:14:00,72.3,61.2,30.13,WSW,250,1.0,5.0,68,0.00,,,0.00,VWS V14.01,2013-06-27 15:14:00,
2013-06-27 08:19:00,72.3,61.6,30.13,WSW,256,1.0,5.0,69,0.00,,,0.00,VWS V14.01,2013-06-27 15:19:00,
2013-06-27 08:24:00,72.3,61.2,30.13,WSW,248,1.0,6.0,68,0.00,,,0.00,VWS V14.01,2013-06-27 15:24:00,
2013-06-27 08:29:00,73.0,62.2,30.13,SW,232,1.0,1.0,69,0.00,,,0.00,VWS V14.01,2013-06-27 15:29:00,
2013-06-27 08:30:00,72.8,61.6,30.13,SW,226,0.0,6.0,68,0.00,,,0.00,VWS V14.01,2013-06-27 15:30:00,
2013-06-27 08:34:00,73.3,62.5,30.13,NE,54,0.0,3.0,69,0.00,,,0.00,VWS V14.01,2013-06-27 15:34:00,
2013-06-27 08:39:00,73.6,61.5,30.13,NW,316,1.0,3.0,66,0.00,,,0.00,VWS V14.01,2013-06-27 15:39:00,
2013-06-27 08:44:00,74.0,62.4,30.13,WNW,283,0.0,3.0,67,0.00,,,0.00,VWS V14.01,2013-06-27 15:44:00,
2013-06-27 08:49:00,74.6,62.5,30.14,NNW,330,2.0,3.0,66,0.00,,,0.00,VWS V14.01,2013-06-27 15:49:00,
2013-06-27 08:54:00,74.8,62.3,30.14,WSW,252,0.0,3.0,65,0.00,,,0.00,VWS V14.01,2013-06-27 15:54:00,
2013-06-27 08:59:00,75.2,62.2,30.14,SW,225,0.0,1.0,64,0.00,,,0.00,VWS V14.01,2013-06-27 15:59:00,
2013-06-27 09:00:00,75.1,62.1,30.14,WSW,256,1.0,3.0,64,0.00,,,0.00,VWS V14.01,2013-06-27 16:00:00,
2013-06-27 09:04:00,75.8,62.8,30.13,WSW,253,0.0,3.0,64,0.00,,,0.00,VWS V14.01,2013-06-27 16:04:00,
2013-06-27 09:09:00,76.5,63.4,30.13,WSW,243,0.0,3.0,64,0.00,,,0.00,VWS V14.01,2013-06-27 16:09:00,
2013-06-27 09:14:00,77.0,62.5,30.13,WSW,255,2.0,4.0,61,0.00,,,0.00,VWS V14.01,2013-06-27 16:14:00,
2013-06-27 09:19:00,77.7,62.7,30.13,SW,235,0.0,4.0,60,0.00,,,0.00,VWS V14.01,2013-06-27 16:19:00,
2013-06-27 09:24:00,77.7,61.8,30.13,West,279,0.0,4.0,58,0.00,,,0.00,VWS V14.01,2013-06-27 16:24:00,
2013-06-27 09:29:00,77.8,62.3,30.13,NNW,345,2.0,2.0,59,0.00,,,0.00,VWS V14.01,2013-06-27 16:29:00,
2013-06-27 09:30:00,77.8,63.3,30.13,NW,318,1.0,4.0,61,0.00,,,0.00,VWS V14.01,2013-06-27 16:30:00,
2013-06-27 09:34:00,77.8,62.3,30.13,West,281,1.0,3.0,59,0.00,,,0.00,VWS V14.01,2013-06-27 16:34:00,
2013-06-27 09:39:00,77.8,63.3,30.13,NW,309,1.0,4.0,61,0.00,,,0.00,VWS V14.01,2013-06-27 16:39:00,
2013-06-27 09:44:00,77.8,62.8,30.13,SW,229,1.0,5.0,60,0.00,,,0.00,VWS V14.01,2013-06-27 16:44:00,
2013-06-27 09:49:00,78.3,62.8,30.13,NNW,330,1.0,6.0,59,0.00,,,0.00,VWS V14.01,2013-06-27 16:49:00,
2013-06-27 09:54:00,78.7,63.2,30.13,WNW,284,2.0,6.0,59,0.00,,,0.00,VWS V14.01,2013-06-27 16:54:00,
2013-06-27 09:59:00,79.0,63.5,30.13,WSW,248,1.0,1.0,59,0.00,,,0.00,VWS V14.01,2013-06-27 16:59:00,
2013-06-27 10:00:00,78.9,62.9,30.13,SW,222,1.0,6.0,58,0.00,,,0.00,VWS V14.01,2013-06-27 17:00:00,
2013-06-27 10:04:00,79.4,62.3,30.12,West,264,2.0,3.0,56,0.00,,,0.00,VWS V14.01,2013-06-27 17:04:00,
2013-06-27 10:09:00,79.8,63.7,30.12,NW,317,0.0,3.0,58,0.00,,,0.00,VWS V14.01,2013-06-27 17:09:00,
2013-06-27 10:14:00,80.2,63.1,30.12,WSW,248,1.0,3.0,56,0.00,,,0.00,VWS V14.01,2013-06-27 17:14:00,
2013-06-27 10:19:00,80.5,63.4,30.12,NNW,327,2.0,3.0,56,0.00,,,0.00,VWS V14.01,2013-06-27 17:19:00,
2013-06-27 10:24:00,80.6,62.4,30.12,NW,304,1.0,5.0,54,0.00,,,0.00,VWS V14.01,2013-06-27 17:24:00,
2013-06-27 10:29:00,80.4,62.2,30.12,SE,136,1.0,2.0,54,0.00,,,0.00,VWS V14.01,2013-06-27 17:29:00,
2013-06-27 10:30:00,80.3,62.7,30.12,SSE,152,2.0,5.0,55,0.00,,,0.00,VWS V14.01,2013-06-27 17:30:00,
2013-06-27 10:34:00,81.2,63.0,30.12,North,359,1.0,2.0,54,0.00,,,0.00,VWS V14.01,2013-06-27 17:34:00,
2013-06-27 10:39:00,81.4,62.6,30.12,NW,321,2.0,4.0,53,0.00,,,0.00,VWS V14.01,2013-06-27 17:39:00,
2013-06-27 10:44:00,81.1,63.4,30.13,SW,233,1.0,4.0,55,0.00,,,0.00,VWS V14.01,2013-06-27 17:44:00,
2013-06-27 10:48:00,81.6,62.8,30.13,NNW,334,0.0,4.0,53,0.00,,,0.00,VWS V14.01,2013-06-27 17:48:00,
2013-06-27 10:54:00,82.0,63.7,30.13,West,277,2.0,4.0,54,0.00,,,0.00,VWS V14.01,2013-06-27 17:54:00,
2013-06-27 10:59:00,82.3,64.0,30.12,WNW,300,0.0,2.0,54,0.00,,,0.00,VWS V14.01,2013-06-27 17:59:00,
2013-06-27 11:00:00,82.3,64.0,30.12,WSW,242,1.0,5.0,54,0.00,,,0.00,VWS V14.01,2013-06-27 18:00:00,
2013-06-27 11:04:00,82.5,64.2,30.13,SSW,204,0.0,3.0,54,0.00,,,0.00,VWS V14.01,2013-06-27 18:04:00,
2013-06-27 11:08:00,82.6,64.3,30.13,West,269,1.0,3.0,54,0.00,,,0.00,VWS V14.01,2013-06-27 18:08:00,
2013-06-27 11:14:00,82.7,64.4,30.13,NNW,328,1.0,3.0,54,0.00,,,0.00,VWS V14.01,2013-06-27 18:14:00,
2013-06-27 11:18:00,82.9,64.0,30.13,NE,49,2.0,5.0,53,0.00,,,0.00,VWS V14.01,2013-06-27 18:18:00,
2013-06-27 11:23:00,83.1,64.8,30.13,NNW,346,1.0,5.0,54,0.00,,,0.00,VWS V14.01,2013-06-27 18:23:00,
2013-06-27 11:28:00,83.4,64.5,30.13,NE,53,1.0,3.0,53,0.00,,,0.00,VWS V14.01,2013-06-27 18:28:00,
2013-06-27 11:30:00,83.4,64.5,30.13,WNW,298,0.0,5.0,53,0.00,,,0.00,VWS V14.01,2013-06-27 18:30:00,
2013-06-27 11:33:00,83.6,63.0,30.13,West,281,1.0,4.0,50,0.00,,,0.00,VWS V14.01,2013-06-27 18:33:00,
2013-06-27 11:38:00,83.9,62.7,30.13,NW,318,2.0,4.0,49,0.00,,,0.00,VWS V14.01,2013-06-27 18:38:00,
2013-06-27 11:43:00,83.7,63.7,30.13,SW,230,1.0,4.0,51,0.00,,,0.00,VWS V14.01,2013-06-27 18:43:00,
2013-06-27 11:48:00,83.9,63.3,30.13,West,281,4.0,4.0,50,0.00,,,0.00,VWS V14.01,2013-06-27 18:48:00,
2013-06-27 11:53:00,83.5,63.5,30.13,WNW,301,0.0,6.0,51,0.00,,,0.00,VWS V14.01,2013-06-27 18:53:00,
2013-06-27 11:58:00,83.9,63.8,30.12,West,281,0.0,1.0,51,0.00,,,0.00,VWS V14.01,2013-06-27 18:58:00,
2013-06-27 12:00:00,83.9,63.8,30.12,SW,235,1.0,6.0,51,0.00,,,0.00,VWS V14.01,2013-06-27 19:00:00,
2013-06-27 12:03:00,84.2,62.4,30.12,WNW,302,2.0,5.0,48,0.00,,,0.00,VWS V14.01,2013-06-27 19:03:00,
2013-06-27 12:08:00,84.7,64.6,30.12,WNW,293,1.0,5.0,51,0.00,,,0.00,VWS V14.01,2013-06-27 19:08:00,
2013-06-27 12:13:00,84.6,62.8,30.13,WNW,287,0.0,8.0,48,0.00,,,0.00,VWS V14.01,2013-06-27 19:13:00,
2013-06-27 12:18:00,84.7,62.9,30.12,West,278,3.0,8.0,48,0.00,,,0.00,VWS V14.01,2013-06-27 19:18:00,
2013-06-27 12:23:00,84.7,62.9,30.12,West,277,2.0,8.0,48,0.00,,,0.00,VWS V14.01,2013-06-27 19:23:00,
2013-06-27 12:28:00,85.2,62.7,30.12,WNW,283,1.0,2.0,47,0.00,,,0.00,VWS V14.01,2013-06-27 19:28:00,
2013-06-27 12:30:00,85.2,62.7,30.12,West,274,0.0,8.0,47,0.00,,,0.00,VWS V14.01,2013-06-27 19:30:00,
2013-06-27 12:33:00,85.7,63.2,30.12,NW,304,2.0,4.0,47,0.00,,,0.00,VWS V14.01,2013-06-27 19:33:00,
2013-06-27 12:38:00,86.3,63.7,30.12,East,86,1.0,5.0,47,0.00,,,0.00,VWS V14.01,2013-06-27 19:38:00,
2013-06-27 12:43:00,86.5,63.3,30.12,NW,325,1.0,5.0,46,0.00,,,0.00,VWS V14.01,2013-06-27 19:43:00,
2013-06-27 12:48:00,87.0,63.1,30.12,North,8,1.0,5.0,45,0.00,,,0.00,VWS V14.01,2013-06-27 19:48:00,
2013-06-27 12:53:00,87.7,63.8,30.12,NW,312,0.0,5.0,45,0.00,,,0.00,VWS V14.01,2013-06-27 19:53:00,
2013-06-27 12:58:00,88.0,62.7,30.12,West,260,2.0,4.0,43,0.00,,,0.00,VWS V14.01,2013-06-27 19:58:00,
2013-06-27 13:00:00,88.0,62.0,30.12,West,259,1.0,5.0,42,0.00,,,0.00,VWS V14.01,2013-06-27 20:00:00,
2013-06-27 13:03:00,88.3,63.7,30.12,NW,304,2.0,4.0,44,0.00,,,0.00,VWS V14.01,2013-06-27 20:03:00,
2013-06-27 13:08:00,88.3,62.3,30.12,WSW,248,1.0,7.0,42,0.00,,,0.00,VWS V14.01,2013-06-27 20:08:00,
2013-06-27 13:13:00,88.6,61.9,30.12,West,276,1.0,7.0,41,0.00,,,0.00,VWS V14.01,2013-06-27 20:13:00,
2013-06-27 13:18:00,89.1,61.7,30.12,West,264,3.0,7.0,40,0.00,,,0.00,VWS V14.01,2013-06-27 20:18:00,
2013-06-27 13:23:00,89.4,59.7,30.11,WSW,255,2.0,7.0,37,0.00,,,0.00,VWS V14.01,2013-06-27 20:23:00,
2013-06-27 13:28:00,89.8,61.6,30.12,ENE,65,0.0,1.0,39,0.00,,,0.00,VWS V14.01,2013-06-27 20:28:00,
2013-06-27 13:30:00,89.8,60.8,30.12,ENE,64,1.0,7.0,38,0.00,,,0.00,VWS V14.01,2013-06-27 20:30:00,
2013-06-27 13:33:00,89.9,60.2,30.11,WNW,298,2.0,3.0,37,0.00,,,0.00,VWS V14.01,2013-06-27 20:33:00,
2013-06-27 13:38:00,90.3,59.8,30.11,West,281,1.0,6.0,36,0.00,,,0.00,VWS V14.01,2013-06-27 20:38:00,
2013-06-27 13:43:00,90.5,59.9,30.11,NW,316,2.0,6.0,36,0.00,,,0.00,VWS V14.01,2013-06-27 20:43:00,
2013-06-27 13:48:00,90.4,60.6,30.11,West,266,4.0,6.0,37,0.00,,,0.00,VWS V14.01,2013-06-27 20:48:00,
2013-06-27 13:54:00,90.7,61.6,30.11,West,274,2.0,6.0,38,0.00,,,0.00,VWS V14.01,2013-06-27 20:54:00,
2013-06-27 13:59:00,91.0,60.4,30.11,West,270,3.0,4.0,36,0.00,,,0.00,VWS V14.01,2013-06-27 20:59:00,
2013-06-27 14:00:00,91.0,59.6,30.11,WNW,285,1.0,6.0,35,0.00,,,0.00,VWS V14.01,2013-06-27 21:00:00,
2013-06-27 14:04:00,91.4,59.1,30.10,SW,231,1.0,5.0,34,0.00,,,0.00,VWS V14.01,2013-06-27 21:04:00,
2013-06-27 14:09:00,91.4,60.7,30.10,WSW,245,2.0,6.0,36,0.00,,,0.00,VWS V14.01,2013-06-27 21:09:00,
2013-06-27 14:14:00,92.0,59.6,30.10,WNW,283,2.0,6.0,34,0.00,,,0.00,VWS V14.01,2013-06-27 21:14:00,
2013-06-27 14:19:00,91.8,60.3,30.10,NNW,341,1.0,6.0,35,0.00,,,0.00,VWS V14.01,2013-06-27 21:19:00,
2013-06-27 14:24:00,91.7,61.8,30.10,NE,34,0.0,6.0,37,0.00,,,0.00,VWS V14.01,2013-06-27 21:24:00,
2013-06-27 14:29:00,91.6,59.3,30.10,SW,225,4.0,7.0,34,0.00,,,0.00,VWS V14.01,2013-06-27 21:29:00,
2013-06-27 14:30:00,91.8,60.3,30.10,WSW,253,1.0,6.0,35,0.00,,,0.00,VWS V14.01,2013-06-27 21:30:00,
2013-06-27 14:34:00,91.4,60.7,30.09,WNW,302,2.0,7.0,36,0.00,,,0.00,VWS V14.01,2013-06-27 21:34:00,
2013-06-27 14:39:00,91.5,61.6,30.09,West,276,1.0,7.0,37,0.00,,,0.00,VWS V14.01,2013-06-27 21:39:00,
2013-06-27 14:44:00,91.8,60.3,30.09,NW,305,2.0,7.0,35,0.00,,,0.00,VWS V14.01,2013-06-27 21:44:00,
2013-06-27 14:49:00,92.0,59.6,30.09,West,262,4.0,7.0,34,0.00,,,0.00,VWS V14.01,2013-06-27 21:49:00,
2013-06-27 14:55:00,91.9,59.5,30.09,West,270,2.0,7.0,34,0.00,,,0.00,VWS V14.01,2013-06-27 21:55:00,
2013-06-27 15:00:00,92.3,59.9,30.09,WNW,302,2.0,3.0,34,0.00,,,0.00,VWS V14.01,2013-06-27 22:00:00,
2013-06-27 15:05:00,92.8,59.5,30.09,NW,304,1.0,6.0,33,0.00,,,0.00,VWS V14.01,2013-06-27 22:05:00,
2013-06-27 15:10:00,92.9,59.6,30.09,WSW,239,0.0,6.0,33,0.00,,,0.00,VWS V14.01,2013-06-27 22:10:00,
2013-06-27 15:15:00,93.0,58.8,30.09,West,262,1.0,6.0,32,0.00,,,0.00,VWS V14.01,2013-06-27 22:15:00,
2013-06-27 15:20:00,93.2,59.0,30.09,West,270,1.0,6.0,32,0.00,,,0.00,VWS V14.01,2013-06-27 22:20:00,
2013-06-27 15:25:00,93.1,57.1,30.09,NW,321,2.0,6.0,30,0.00,,,0.00,VWS V14.01,2013-06-27 22:25:00,
2013-06-27 15:30:00,93.1,56.2,30.09,NW,312,2.0,6.0,29,0.00,,,0.00,VWS V14.01,2013-06-27 22:30:00,
2013-06-27 15:31:00,93.2,56.2,30.09,NNW,340,3.0,3.0,29,0.00,,,0.00,VWS V14.01,2013-06-27 22:31:00,
2013-06-27 15:36:00,93.3,57.3,30.08,ENE,61,2.0,4.0,30,0.00,,,0.00,VWS V14.01,2013-06-27 22:36:00,
2013-06-27 15:41:00,93.4,55.5,30.08,NW,308,1.0,5.0,28,0.00,,,0.00,VWS V14.01,2013-06-27 22:41:00,
2013-06-27 15:46:00,93.7,53.7,30.09,WNW,293,1.0,5.0,26,0.00,,,0.00,VWS V14.01,2013-06-27 22:46:00,
2013-06-27 15:51:00,94.0,55.0,30.08,NW,313,1.0,5.0,27,0.00,,,0.00,VWS V14.01,2013-06-27 22:51:00,
2013-06-27 15:56:00,94.1,56.0,30.08,WSW,238,2.0,8.0,28,0.00,,,0.00,VWS V14.01,2013-06-27 22:56:00,
2013-06-27 16:00:00,94.1,55.0,30.08,SW,232,4.0,8.0,27,0.00,,,0.00,VWS V14.01,2013-06-27 23:00:00,
2013-06-27 16:01:00,93.9,55.9,30.08,WNW,300,1.0,7.0,28,0.00,,,0.00,VWS V14.01,2013-06-27 23:01:00,
2013-06-27 16:06:00,94.4,58.2,30.08,SW,221,1.0,7.0,30,0.00,,,0.00,VWS V14.01,2013-06-27 23:06:00,
2013-06-27 16:11:00,94.3,53.1,30.08,NE,36,2.0,7.0,25,0.00,,,0.00,VWS V14.01,2013-06-27 23:11:00,
2013-06-27 16:16:00,94.1,52.9,30.08,West,281,2.0,7.0,25,0.00,,,0.00,VWS V14.01,2013-06-27 23:16:00,
2013-06-27 16:21:00,94.1,55.0,30.08,WSW,242,1.0,7.0,27,0.00,,,0.00,VWS V14.01,2013-06-27 23:21:00,
2013-06-27 16:26:00,93.9,55.9,30.07,NW,323,2.0,7.0,28,0.00,,,0.00,VWS V14.01,2013-06-27 23:26:00,
2013-06-27 16:30:00,93.9,53.8,30.07,NW,312,3.0,7.0,26,0.00,,,0.00,VWS V14.01,2013-06-27 23:30:00,
2013-06-27 16:31:00,93.9,51.7,30.08,NW,304,1.0,4.0,24,0.00,,,0.00,VWS V14.01,2013-06-27 23:31:00,
2013-06-27 16:36:00,94.1,51.8,30.08,WSW,238,2.0,4.0,24,0.00,,,0.00,VWS V14.01,2013-06-27 23:36:00,
2013-06-27 16:42:00,94.0,51.8,30.07,NNE,16,1.0,5.0,24,0.00,,,0.00,VWS V14.01,2013-06-27 23:42:00,
2013-06-27 16:47:00,94.2,53.0,30.07,WSW,238,1.0,5.0,25,0.00,,,0.00,VWS V14.01,2013-06-27 23:47:00,
2013-06-27 16:52:00,94.1,49.5,30.07,WSW,239,5.0,6.0,22,0.00,,,0.00,VWS V14.01,2013-06-27 23:52:00,
2013-06-27 16:57:00,94.0,50.6,30.07,WNW,287,2.0,6.0,23,0.00,,,0.00,VWS V14.01,2013-06-27 23:57:00,
2013-06-27 17:00:00,94.0,50.6,30.07,West,274,0.0,6.0,23,0.00,,,0.00,VWS V14.01,2013-06-28 00:00:00,
2013-06-27 17:02:00,93.9,52.8,30.07,ENE,57,1.0,4.0,25,0.00,,,0.00,VWS V14.01,2013-06-28 00:02:00,
2013-06-27 17:07:00,94.1,50.7,30.07,SW,233,1.0,5.0,23,0.00,,,0.00,VWS V14.01,2013-06-28 00:07:00,
2013-06-27 17:12:00,94.5,54.3,30.07,WSW,249,1.0,5.0,26,0.00,,,0.00,VWS V14.01,2013-06-28 00:12:00,
2013-06-27 17:17:00,95.3,51.7,30.07,WNW,294,2.0,5.0,23,0.00,,,0.00,VWS V14.01,2013-06-28 00:17:00,
2013-06-27 17:22:00,95.0,53.7,30.07,NW,304,2.0,5.0,25,0.00,,,0.00,VWS V14.01,2013-06-28 00:22:00,
2013-06-27 17:27:00,94.2,55.1,30.07,WNW,283,2.0,5.0,27,0.00,,,0.00,VWS V14.01,2013-06-28 00:27:00,
2013-06-27 17:30:00,94.1,55.0,30.07,NW,308,1.0,5.0,27,0.00,,,0.00,VWS V14.01,2013-06-28 00:30:00,
2013-06-27 17:32:00,94.2,57.1,30.07,West,280,1.0,6.0,29,0.00,,,0.00,VWS V14.01,2013-06-28 00:32:00,
2013-06-27 17:37:00,94.0,56.9,30.07,NW,315,2.0,6.0,29,0.00,,,0.00,VWS V14.01,2013-06-28 00:37:00,
2013-06-27 17:42:00,93.6,57.5,30.06,NW,304,1.0,6.0,30,0.00,,,0.00,VWS V14.01,2013-06-28 00:42:00,
2013-06-27 17:47:00,93.8,56.8,30.06,WNW,295,1.0,6.0,29,0.00,,,0.00,VWS V14.01,2013-06-28 00:47:00,
2013-06-27 17:52:00,93.8,56.8,30.06,West,267,2.0,6.0,29,0.00,,,0.00,VWS V14.01,2013-06-28 00:52:00,
2013-06-27 17:57:00,93.1,57.1,30.06,North,352,2.0,6.0,30,0.00,,,0.00,VWS V14.01,2013-06-28 00:57:00,
2013-06-27 18:00:00,93.1,57.1,30.06,NNW,342,2.0,6.0,30,0.00,,,0.00,VWS V14.01,2013-06-28 01:00:00,
2013-06-27 18:02:00,93.1,57.1,30.06,WNW,300,3.0,4.0,30,0.00,,,0.00,VWS V14.01,2013-06-28 01:02:00,
2013-06-27 18:07:00,93.3,56.3,30.06,NNW,338,2.0,4.0,29,0.00,,,0.00,VWS V14.01,2013-06-28 01:07:00,
2013-06-27 18:12:00,93.6,57.5,30.06,WSW,257,1.0,4.0,30,0.00,,,0.00,VWS V14.01,2013-06-28 01:12:00,
2013-06-27 18:17:00,93.4,56.4,30.05,NW,316,1.0,4.0,29,0.00,,,0.00,VWS V14.01,2013-06-28 01:17:00,
2013-06-27 18:27:00,93.6,54.6,30.05,NW,317,1.0,1.0,27,0.00,,,0.00,VWS V14.01,2013-06-28 01:27:00,
2013-06-27 18:30:00,93.6,54.6,30.05,WSW,245,1.0,1.0,27,0.00,,,0.00,VWS V14.01,2013-06-28 01:30:00,
2013-06-27 18:32:00,93.7,53.7,30.05,NW,314,2.0,2.0,26,0.00,,,0.00,VWS V14.01,2013-06-28 01:32:00,
2013-06-27 18:38:00,93.7,53.7,30.05,SW,224,0.0,2.0,26,0.00,,,0.00,VWS V14.01,2013-06-28 01:38:00,
2013-06-27 18:43:00,93.2,53.2,30.05,East,91,1.0,3.0,26,0.00,,,0.00,VWS V14.01,2013-06-28 01:43:00,
2013-06-27 18:48:00,92.8,51.8,30.05,WSW,256,1.0,3.0,25,0.00,,,0.00,VWS V14.01,2013-06-28 01:48:00,
2013-06-27 18:53:00,92.4,52.6,30.05,NE,34,2.0,3.0,26,0.00,,,0.00,VWS V14.01,2013-06-28 01:53:00,
2013-06-27 18:58:00,92.0,53.3,30.05,NNE,22,1.0,2.0,27,0.00,,,0.00,VWS V14.01,2013-06-28 01:58:00,
2013-06-27 19:00:00,92.0,53.3,30.05,NE,37,0.0,6.0,27,0.00,,,0.00,VWS V14.01,2013-06-28 02:00:00,
2013-06-27 19:03:00,91.8,53.1,30.05,WNW,302,1.0,3.0,27,0.00,,,0.00,VWS V14.01,2013-06-28 02:03:00,
2013-06-27 19:08:00,91.4,53.8,30.05,WNW,296,1.0,3.0,28,0.00,,,0.00,VWS V14.01,2013-06-28 02:08:00,
2013-06-27 19:13:00,91.2,54.5,30.05,NNW,336,2.0,3.0,29,0.00,,,0.00,VWS V14.01,2013-06-28 02:13:00,
2013-06-27 19:21:00,90.6,54.0,30.05,North,357,1.0,1.0,29,0.00,,,0.00,VWS V14.01,2013-06-28 02:21:00,
2013-06-27 19:26:00,90.4,55.7,30.05,WNW,289,2.0,3.0,31,0.00,,,0.00,VWS V14.01,2013-06-28 02:26:00,
2013-06-27 19:32:00,90.1,53.6,30.05,WNW,302,2.0,2.0,29,0.00,,,0.00,VWS V14.01,2013-06-28 02:32:00,
2013-06-27 19:38:00,90.0,54.4,30.05,West,264,1.0,3.0,30,0.00,,,0.00,VWS V14.01,2013-06-28 02:38:00,
2013-06-27 19:43:00,89.5,54.0,30.05,West,259,1.0,3.0,30,0.00,,,0.00,VWS V14.01,2013-06-28 02:43:00,
2013-06-27 19:48:00,88.5,54.9,30.06,NW,305,0.0,3.0,32,0.00,,,0.00,VWS V14.01,2013-06-28 02:48:00,
2013-06-27 19:53:00,87.5,55.7,30.06,NW,304,1.0,3.0,34,0.00,,,0.00,VWS V14.01,2013-06-28 02:53:00,
2013-06-27 19:58:00,86.5,55.6,30.06,WNW,287,2.0,2.0,35,0.00,,,0.00,VWS V14.01,2013-06-28 02:58:00,
2013-06-27 20:03:00,85.8,55.8,30.06,NW,318,4.0,4.0,36,0.00,,,0.00,VWS V14.01,2013-06-28 03:03:00,
2013-06-27 20:08:00,85.2,56.0,30.06,WNW,296,1.0,4.0,37,0.00,,,0.00,VWS V14.01,2013-06-28 03:08:00,
2013-06-27 20:13:00,84.5,55.4,30.06,WSW,252,1.0,4.0,37,0.00,,,0.00,VWS V14.01,2013-06-28 03:13:00,
2013-06-27 20:19:00,83.9,56.3,30.06,NW,305,1.0,4.0,39,0.00,,,0.00,VWS V14.01,2013-06-28 03:19:00,
2013-06-27 20:24:00,83.4,56.6,30.07,West,260,0.0,4.0,40,0.00,,,0.00,VWS V14.01,2013-06-28 03:24:00,
2013-06-27 20:29:00,82.8,56.0,30.06,West,270,0.0,0.0,40,0.00,,,0.00,VWS V14.01,2013-06-28 03:29:00,
2013-06-27 20:34:00,82.3,56.3,30.07,WSW,255,1.0,2.0,41,0.00,,,0.00,VWS V14.01,2013-06-28 03:34:00,
2013-06-27 20:39:00,81.8,56.5,30.07,NW,318,0.0,3.0,42,0.00,,,0.00,VWS V14.01,2013-06-28 03:39:00,
2013-06-27 20:44:00,81.4,56.8,30.07,SW,235,0.0,3.0,43,0.00,,,0.00,VWS V14.01,2013-06-28 03:44:00,
2013-06-27 20:49:00,81.0,56.4,30.07,SW,235,0.0,3.0,43,0.00,,,0.00,VWS V14.01,2013-06-28 03:49:00,
2013-06-27 20:54:00,80.4,56.5,30.07,SW,234,0.0,3.0,44,0.00,,,0.00,VWS V14.01,2013-06-28 03:54:00,
2013-06-27 20:59:00,79.8,56.6,30.07,SW,235,0.0,0.0,45,0.00,,,0.00,VWS V14.01,2013-06-28 03:59:00,
2013-06-27 21:01:00,79.7,55.9,30.07,SW,235,0.0,0.0,44,0.00,,,0.00,VWS V14.01,2013-06-28 04:01:00,
2013-06-27 21:06:00,79.1,56.0,30.07,SW,222,0.0,0.0,45,0.00,,,0.00,VWS V14.01,2013-06-28 04:06:00,
2013-06-27 21:11:00,78.7,55.0,30.07,WSW,243,0.0,2.0,44,0.00,,,0.00,VWS V14.01,2013-06-28 04:11:00,
2013-06-27 21:16:00,78.3,55.2,30.07,WSW,243,0.0,2.0,45,0.00,,,0.00,VWS V14.01,2013-06-28 04:16:00,
2013-06-27 21:21:00,78.0,55.6,30.07,WSW,243,0.0,2.0,46,0.00,,,0.00,VWS V14.01,2013-06-28 04:21:00,
2013-06-27 21:26:00,77.7,55.3,30.07,WSW,243,0.0,2.0,46,0.00,,,0.00,VWS V14.01,2013-06-28 04:26:00,
2013-06-27 21:31:00,77.7,55.3,30.08,WSW,245,0.0,1.0,46,0.00,,,0.00,VWS V14.01,2013-06-28 04:31:00,
2013-06-27 21:36:00,77.5,55.7,30.08,WSW,245,0.0,1.0,47,0.00,,,0.00,VWS V14.01,2013-06-28 04:36:00,
2013-06-27 21:41:00,77.1,55.9,30.08,WSW,245,0.0,1.0,48,0.00,,,0.00,VWS V14.01,2013-06-28 04:41:00,
2013-06-27 21:46:00,76.6,56.0,30.08,WSW,245,0.0,1.0,49,0.00,,,0.00,VWS V14.01,2013-06-28 04:46:00,
2013-06-27 21:51:00,76.1,56.1,30.08,WSW,245,0.0,1.0,50,0.00,,,0.00,VWS V14.01,2013-06-28 04:51:00,
2013-06-27 21:56:00,76.1,56.1,30.08,SW,235,0.0,2.0,50,0.00,,,0.00,VWS V14.01,2013-06-28 04:56:00,
2013-06-27 22:01:00,75.9,56.5,30.08,SW,236,0.0,0.0,51,0.00,,,0.00,VWS V14.01,2013-06-28 05:01:00,
2013-06-27 22:06:00,75.5,56.1,30.08,SW,236,0.0,0.0,51,0.00,,,0.00,VWS V14.01,2013-06-28 05:06:00,
2013-06-27 22:11:00,75.2,56.9,30.08,WSW,237,0.0,0.0,53,0.00,,,0.00,VWS V14.01,2013-06-28 05:11:00,
2013-06-27 22:16:00,74.6,56.9,30.09,WSW,239,0.0,0.0,54,0.00,,,0.00,VWS V14.01,2013-06-28 05:16:00,
2013-06-27 22:21:00,74.2,57.0,30.09,WSW,239,0.0,0.0,55,0.00,,,0.00,VWS V14.01,2013-06-28 05:21:00,
2013-06-27 22:26:00,73.6,56.5,30.09,WSW,239,0.0,0.0,55,0.00,,,0.00,VWS V14.01,2013-06-28 05:26:00,
2013-06-27 22:31:00,73.2,56.6,30.09,WSW,239,0.0,0.0,56,0.00,,,0.00,VWS V14.01,2013-06-28 05:31:00,
2013-06-27 22:36:00,72.7,56.6,30.09,WSW,239,0.0,0.0,57,0.00,,,0.00,VWS V14.01,2013-06-28 05:36:00,
2013-06-27 22:41:00,72.4,56.8,30.09,WSW,239,0.0,0.0,58,0.00,,,0.00,VWS V14.01,2013-06-28 05:41:00,
2013-06-27 22:46:00,72.1,57.0,30.09,WSW,239,0.0,0.0,59,0.00,,,0.00,VWS V14.01,2013-06-28 05:46:00,
2013-06-27 22:51:00,71.7,56.6,30.09,WSW,239,0.0,0.0,59,0.00,,,0.00,VWS V14.01,2013-06-28 05:51:00,
2013-06-27 22:56:00,71.6,56.1,30.09,WSW,239,0.0,0.0,58,0.00,,,0.00,VWS V14.01,2013-06-28 05:56:00,
2013-06-27 23:01:00,71.5,56.0,30.09,WSW,240,0.0,0.0,58,0.00,,,0.00,VWS V14.01,2013-06-28 06:01:00,
2013-06-27 23:06:00,71.3,55.8,30.09,WSW,238,0.0,1.0,58,0.00,,,0.00,VWS V14.01,2013-06-28 06:06:00,
2013-06-27 23:11:00,71.0,56.0,30.09,WSW,238,0.0,1.0,59,0.00,,,0.00,VWS V14.01,2013-06-28 06:11:00,
2013-06-27 23:16:00,70.6,55.6,30.08,WSW,238,0.0,1.0,59,0.00,,,0.00,VWS V14.01,2013-06-28 06:16:00,
2013-06-27 23:21:00,70.5,55.5,30.08,WSW,238,0.0,1.0,59,0.00,,,0.00,VWS V14.01,2013-06-28 06:21:00,
2013-06-27 23:26:00,70.1,55.6,30.08,WSW,238,0.0,1.0,60,0.00,,,0.00,VWS V14.01,2013-06-28 06:26:00,
2013-06-27 23:31:00,69.8,55.3,30.08,WSW,238,0.0,0.0,60,0.00,,,0.00,VWS V14.01,2013-06-28 06:31:00,
2013-06-27 23:36:00,69.6,55.6,30.08,WSW,238,0.0,0.0,61,0.00,,,0.00,VWS V14.01,2013-06-28 06:36:00,
2013-06-27 23:41:00,69.3,55.3,30.08,WSW,238,0.0,0.0,61,0.00,,,0.00,VWS V14.01,2013-06-28 06:41:00,
2013-06-27 23:46:00,69.0,55.5,30.08,WSW,238,0.0,0.0,62,0.00,,,0.00,VWS V14.01,2013-06-28 06:46:00,
2013-06-27 23:51:00,68.8,55.3,30.08,WSW,238,0.0,0.0,62,0.00,,,0.00,VWS V14.01,2013-06-28 06:51:00,
2013-06-27 23:56:00,68.6,55.5,30.08,WSW,238,0.0,0.0,63,0.00,,,0.00,VWS V14.01,2013-06-28 06:56:00,